Location: *
(49.0044°N, 9.5056°E)
Time: 10:10:49
(UTC+00:00)

H-2A R/B - Pass Details

Date: 22 September 2019
Orbit: 734 x 836 km, 98.3° (Epoch: 22 October)

Event Time Altitude Azimuth Distance (km) Brightness Sun altitude
Exits shadow 20:21:02 16° 222° (SW) 1,903 4.0 -28.3°
Maximum altitude 20:23:55 25° 268° (W) 1,479 3.9 -28.7°
Drops below altitude 10° 20:28:06 10° 323° (NW) 2,312 5.4 -29.2°
Sets 20:30:50 0° 337° (NNW) 3,261 6.2 -29.5°
